Culdrose, United Kingdom

1:07 PM BST on June 22, 2017 (GMT +0100)
Culdrose Navy

Weather History for EGDR - July, 2014

Change the Weather History Date:

Tuesday, July 22, 2014

  Actual Average Record
Temperature  
Mean Temperature 64 °F -  
Max Temperature 72 °F 64 °F 72 °F (2014)
Min Temperature 57 °F 54 °F 48 °F (1996)
Growing Degree Days 14 (Base 50)    
Moisture  
Dew Point 61 °F    
Average Humidity 85    
Maximum Humidity 100    
Minimum Humidity 67    
Precipitation  
Precipitation 0.00 in - - ()
Sea Level Pressure  
Sea Level Pressure 30.22 in    
Wind  
Wind Speed 4 mph ()    
Max Wind Speed 10 mph    
Max Gust Speed -    
Visibility 8.4 miles    
Events Fog    
Averages and records for this station are not official NWS values.
T = Trace of Precipitation, MM = Missing Value Source: Averaged Metar Reports

Daily Weather History Graph

Daily Weather History Graph

Search for Another Location

Airport or City:

Trip Planner

Search our weather history database for the weather conditions in past years. The results will help you decide how hot, cold, wet, or windy it might be!

Date:

Astronomy

Jul. 22, 2014 Rise Set
Actual Time 5:36 AM BST 9:17 PM BST
Civil Twilight 4:55 AM BST 9:58 PM BST
Nautical Twilight 3:59 AM BST 10:53 PM BST
Astronomical Twilight 2:35 AM BST 12:15 AM BST
Moon 2:04 AM BST 5:39 PM BST
Length of Visible Light 17h 02m
Length of Day
15h 41m
Waning Crescent, 18% of the Moon is Illuminated
Jul 22
Waning Crescent
Jul 26
New
Aug 4
First Quarter
Aug 10
Full
Aug 17
Last Quarter

Hourly Weather History & Observations

Time (BST) Temp. Dew Point Humidity Pressure Visibility Wind Dir Wind Speed Gust Speed Precip Events Conditions
12:00 AM 63 °F 60 °F 85% 30.24 in 11 mi NW 3.5 mph - -   Haze
12:50 AM 62.6 °F 59.0 °F 88% 30.21 in - NW 3.5 mph - N/A   Clear
1:00 AM 62 °F 59 °F 87% 30.23 in 12 mi NW 3.5 mph - -   Scattered Clouds
1:50 AM 60.8 °F 59.0 °F 94% 30.21 in 6.2 mi WNW 5.8 mph - N/A   Partly Cloudy
2:00 AM 61 °F 59 °F 89% 30.23 in 12 mi WNW 5.8 mph - -   Scattered Clouds
2:50 AM 60.8 °F 59.0 °F 94% 30.21 in - WNW 5.8 mph - N/A   Clear
3:00 AM 61 °F 58 °F 87% 30.22 in 12 mi WNW 5.8 mph - -   Scattered Clouds
3:50 AM 59.0 °F 57.2 °F 94% 30.21 in 6.2 mi NW 2.3 mph - N/A   Haze
4:00 AM 59 °F 58 °F 93% 30.22 in 11 mi NW 2.3 mph - -   Haze
4:50 AM 60.8 °F 59.0 °F 94% 30.21 in 6.2 mi NW 3.5 mph - N/A   Partly Cloudy
5:00 AM 60 °F 58 °F 93% 30.22 in 11 mi NW 3.5 mph - -   Mist
5:50 AM 59.0 °F 57.2 °F 94% 30.21 in 6.2 mi NNW 2.3 mph - N/A   Partly Cloudy
6:00 AM 58 °F 57 °F 97% 30.23 in 11 mi NNW 2.3 mph - -   Mist
6:50 AM 59.0 °F 59.0 °F 100% 30.21 in 6.2 mi NNW 1.2 mph - N/A   Mostly Cloudy
7:00 AM 60 °F 59 °F 94% 30.23 in 9 mi NNW 1.2 mph - -   Mist
7:50 AM 64.4 °F 60.8 °F 88% 30.21 in 6.2 mi ENE 4.6 mph - N/A Fog Shallow Fog
8:00 AM 64 °F 61 °F 87% 30.23 in 6 mi ENE 4.6 mph - - Fog Patches of Fog
8:50 AM 66.2 °F 62.6 °F 88% 30.24 in 6.2 mi ENE 5.8 mph - N/A   Scattered Clouds
9:00 AM 66 °F 62 °F 83% 30.24 in 9 mi ENE 5.8 mph - -   Partly Cloudy
9:50 AM 68.0 °F 60.8 °F 78% 30.21 in 6.2 mi East 4.6 mph - N/A   Scattered Clouds
10:00 AM 69 °F 60 °F 67% 30.24 in 12 mi East 4.6 mph - -   Partly Cloudy
10:50 AM 66.2 °F 62.6 °F 88% 30.24 in 6.2 mi SW 5.8 mph - N/A   Haze
11:00 AM 66 °F 62 °F 83% 30.24 in 11 mi SW 5.8 mph - -   Haze
11:50 AM 69.8 °F 62.6 °F 78% 30.24 in 6.2 mi WSW 4.6 mph - N/A   Scattered Clouds
12:00 PM 69 °F 62 °F 73% 30.24 in 7 mi WSW 4.6 mph - -   Partly Cloudy
12:50 PM 68.0 °F 62.6 °F 83% 30.24 in 6.2 mi SW 6.9 mph - N/A   Haze
1:00 PM 68 °F 62 °F 77% 30.24 in 9 mi SW 6.9 mph - -   Haze
1:50 PM 69.8 °F 62.6 °F 78% 30.21 in 6.2 mi SW 6.9 mph - N/A   Haze
2:00 PM 70 °F 63 °F 72% 30.23 in 10 mi SW 6.9 mph - -   Haze
2:50 PM 69.8 °F 64.4 °F 83% 30.21 in 6.2 mi WSW 4.6 mph - N/A   Haze
3:00 PM 70 °F 64 °F 75% 30.22 in 11 mi WSW 4.6 mph - -   Haze
3:50 PM 68.0 °F 62.6 °F 83% 30.21 in 6.2 mi WSW 5.8 mph - N/A   Scattered Clouds
4:00 PM 68 °F 63 °F 79% 30.21 in 12 mi WSW 5.8 mph - -   Partly Cloudy
4:50 PM 69.8 °F 62.6 °F 78% 30.21 in 6.2 mi SW 4.6 mph - N/A   Scattered Clouds
5:00 PM 69 °F 62 °F 72% 30.21 in 12 mi SW 4.6 mph - -   Partly Cloudy
6:00 PM 72 °F 64 °F 69% 30.20 in 12 mi WSW 4.6 mph - -   Partly Cloudy
6:50 PM 71.6 °F 64.4 °F 78% 30.18 in 6.2 mi NNE 9.2 mph - N/A   Scattered Clouds
7:00 PM 72 °F 64 °F 71% 30.19 in 12 mi NNE 9.2 mph - -   Partly Cloudy
7:50 PM 69.8 °F 64.4 °F 83% 30.18 in 6.2 mi North 8.1 mph - N/A   Partly Cloudy
8:00 PM 70 °F 64 °F 77% 30.20 in 12 mi North 8.1 mph - -   Scattered Clouds
8:50 PM 68.0 °F 64.4 °F 88% 30.18 in 6.2 mi North 5.8 mph - N/A   Partly Cloudy
9:00 PM 67 °F 64 °F 86% 30.20 in 12 mi North 5.8 mph - -   Scattered Clouds
9:50 PM 66.2 °F 62.6 °F 88% 30.21 in 6.2 mi North 8.1 mph - N/A   Haze
10:00 PM 65 °F 63 °F 91% 30.21 in 7 mi North 8.1 mph - -   Haze
10:50 PM 64.4 °F 62.6 °F 94% 30.18 in 6.2 mi NNE 10.4 mph - N/A   Haze
11:00 PM 64 °F 62 °F 93% 30.20 in 7 mi NNE 10.4 mph - -   Haze
11:50 PM 64.4 °F 62.6 °F 94% 30.18 in 6.2 mi North 9.2 mph - N/A   Partly Cloudy